FW6744 Weather Reports


Display with metric or nautical units.
time (UTC)temp
F
wind
direction
speed
MPH
gust
MPH
rain 1hr
in
rain 24hr
in
rain mn
in
humidity
%
barometer
mb
20260905113023 70 162 0.0 0.0 0.00 0.21 0.00 98 1007.6
20260905112516 70 162 0.0 0.0 0.00 0.21 0.00 98 1007.5
20260905112010 70 162 0.0 0.0 0.00 0.21 0.00 98 1007.5
20260905111504 70 162 0.0 0.0 0.00 0.21 0.00 98 1007.4
20260905110958 70 162 0.0 0.0 0.00 0.21 0.00 98 1007.5
20260905110453 70 162 0.0 0.0 0.00 0.21 0.00 98 1007.4
20260905105947 70 162 0.0 0.0 0.00 0.21 0.00 98 1007.3
20260905105440 69 162 0.0 0.0 0.00 0.21 0.00 98 1007.4
20260905104934 69 162 0.0 0.0 0.00 0.21 0.00 98 1007.3
20260905104429 70 162 0.0 0.0 0.00 0.21 0.00 98 1007.2
20260905103923 70 162 0.0 0.0 0.00 0.21 0.00 98 1007.1
20260905103417 70 162 0.0 0.0 0.00 0.21 0.00 98 1007.1
20260905102911 70 162 0.0 0.0 0.00 0.21 0.00 98 1007.2
20260905102406 70 162 0.0 0.0 0.00 0.21 0.00 98 1007.1
20260905101859 70 162 0.0 0.0 0.00 0.21 0.00 98 1007.1
20260905101353 70 162 0.0 0.0 0.00 0.21 0.00 98 1007.0
20260905100846 70 162 0.0 0.0 0.00 0.21 0.00 98 1006.9
20260905100341 70 162 0.0 0.0 0.00 0.21 0.00 98 1006.9
20260905095835 70 162 0.0 0.0 0.00 0.21 0.00 98 1006.9
20260905095328 70 162 0.0 0.0 0.00 0.21 0.00 97 1006.9
20260905094822 70 162 0.0 0.0 0.00 0.21 0.00 98 1006.9
20260905094316 70 162 0.0 0.0 0.00 0.21 0.00 98 1006.9
20260905093810 70 162 0.0 0.0 0.00 0.21 0.00 98 1006.9
20260905093305 70 162 0.0 0.0 0.00 0.21 0.00 98 1006.9
20260905092758 70 162 0.0 0.0 0.00 0.21 0.00 98 1006.8
20260905092518 70 162 0.0 0.0 0.00 0.21 0.00 98 1006.8
20260905092008 70 162 0.0 0.0 0.00 0.21 0.00 98 1006.8
20260905091240 70 162 0.0 0.0 0.00 0.21 0.00 98 1006.6
20260905090735 70 162 0.0 0.0 0.00 0.21 0.00 97 1006.5
20260905090453 71 162 0.0 0.0 0.00 0.21 0.00 98 1006.5
20260905085942 70 162 0.0 0.0 0.00 0.21 0.00 97 1006.6
20260905085217 71 162 0.0 0.0 0.00 0.21 0.00 97 1006.6
20260905084711 71 162 0.0 0.0 0.00 0.21 0.00 97 1006.6
20260905084205 71 162 0.0 0.0 0.00 0.21 0.00 97 1006.5
20260905083659 71 162 0.0 0.0 0.00 0.21 0.00 97 1006.5
20260905083153 71 162 0.0 0.0 0.00 0.21 0.00 97 1006.7
20260905082648 71 162 0.0 0.0 0.00 0.21 0.00 97 1006.7
20260905082618 71 162 0.0 0.0 0.00 0.21 0.00 97 1006.7
20260905081836 71 162 0.0 0.0 0.00 0.21 0.00 97 1006.8
20260905081723 71 162 0.0 0.0 0.00 0.21 0.00 97 1006.7
20260905080622 71 162 0.0 0.0 0.00 0.21 0.00 97 1006.8
20260905080117 71 162 0.0 0.0 0.00 0.21 0.00 97 1006.9
20260905075611 71 162 0.0 0.0 0.00 0.21 0.00 97 1006.9
20260905075105 71 162 0.0 0.0 0.00 0.21 0.00 97 1006.9
20260905074559 71 162 0.0 0.0 0.00 0.21 0.00 97 1007.1
20260905074053 71 162 0.0 0.0 0.00 0.21 0.00 97 1007.2
20260905073547 71 162 0.0 0.0 0.00 0.21 0.00 97 1007.2
20260905073041 71 162 0.0 0.0 0.00 0.21 0.00 97 1007.2
20260905072535 71 162 0.0 0.0 0.00 0.21 0.00 97 1007.3
20260905072028 71 162 0.0 1.0 0.00 0.21 0.00 97 1007.2
20260905071522 71 142 0.0 1.0 0.00 0.21 0.00 97 1007.2
20260905071016 71 142 0.0 0.0 0.00 0.21 0.00 97 1007.2
20260905071006 71 142 0.0 0.0 0.00 0.21 0.00 97 1007.3
20260905070005 71 142 0.0 1.0 0.00 0.21 0.00 97 1007.4
20260905065458 71 142 0.0 1.0 0.00 0.21 0.00 97 1007.4
20260905064953 71 202 0.0 1.0 0.00 0.21 0.00 97 1007.5
20260905064446 71 177 0.0 1.0 0.00 0.21 0.00 97 1007.5
20260905063940 71 171 0.0 0.0 0.00 0.21 0.00 97 1007.5
20260905063437 72 170 0.0 0.0 0.00 0.21 0.00 97 1007.6
20260905062938 72 170 0.0 0.0 0.00 0.21 0.00 97 1007.6
20260905062438 72 170 0.0 0.0 0.00 0.21 0.00 97 1007.7
20260905061936 72 170 0.0 1.0 0.00 0.21 0.00 97 1007.6
20260905061436 72 170 0.0 1.0 0.00 0.21 0.00 97 1007.8
20260905060932 72 211 0.0 1.0 0.00 0.21 0.00 97 1007.7
20260905060433 72 211 0.0 1.0 0.00 0.21 0.00 97 1007.8
20260905060152 72 225 0.0 1.0 0.00 0.21 0.00 97 1008.0
20260905055432 72 186 0.0 0.0 0.00 0.21 0.00 97 1008.1
20260905054934 72 188 0.0 0.0 0.00 0.21 0.00 97 1008.1
20260905054434 72 212 0.0 1.0 0.00 0.21 0.00 97 1008.2
20260905053930 72 212 0.0 1.0 0.00 0.21 0.00 97 1008.3
20260905053429 72 213 0.0 1.0 0.00 0.21 0.00 97 1008.4
20260905052929 72 164 0.0 1.0 0.00 0.21 0.00 97 1008.5
20260905052430 72 152 0.0 0.0 0.00 0.21 0.00 97 1008.6
20260905051930 72 150 0.0 0.0 0.00 0.21 0.00 97 1008.7
20260905051428 72 132 0.0 1.0 0.00 0.21 0.00 97 1008.8
20260905050929 72 172 0.0 1.0 0.00 0.21 0.00 97 1008.9
20260905050430 72 223 0.0 1.0 0.00 0.21 0.00 97 1009.0
20260905050206 72 223 0.0 1.0 0.00 0.21 0.00 97 1009.2
20260905045428 72 223 0.0 0.0 0.00 0.21 0.00 97 1009.2
20260905044930 72 223 0.0 0.0 0.00 0.21 0.00 97 1009.2
20260905044428 72 223 0.0 0.0 0.00 0.21 0.00 97 1009.4
20260905043929 72 223 0.0 0.0 0.00 0.21 0.00 97 1009.5
20260905043429 72 223 0.0 0.0 0.00 0.21 0.00 97 1009.5
20260905042929 72 223 0.0 1.0 0.00 0.21 0.00 97 1009.5
20260905042430 72 223 0.0 1.0 0.00 0.21 0.00 97 1009.5
20260905041930 72 26 0.0 1.0 0.00 0.21 0.00 97 1009.4
20260905041429 73 93 0.0 1.0 0.00 0.21 0.00 97 1009.4
20260905040922 73 149 0.0 1.0 0.00 0.21 0.00 97 1009.6
20260905040417 73 131 0.0 3.0 0.00 0.21 0.00 97 1009.5
20260905035912 73 227 0.0 3.0 0.00 0.21 0.21 97 1009.6
20260905035406 73 219 0.0 1.0 0.00 0.21 0.21 97 1009.6
20260905035127 73 63 0.0 1.0 0.00 0.21 0.21 97 1009.5
20260905034354 73 155 0.0 0.0 0.00 0.21 0.21 97 1009.6
20260905033848 73 155 0.0 0.0 0.00 0.21 0.21 97 1009.6
20260905033342 73 153 0.0 1.0 0.00 0.21 0.21 97 1009.6
20260905032837 73 153 0.0 1.0 0.00 0.21 0.21 97 1009.7
20260905032330 73 76 0.0 1.0 0.00 0.21 0.21 97 1009.7
20260905031824 73 103 0.0 0.0 0.00 0.21 0.21 97 1009.7
20260905031322 73 103 0.0 0.0 0.00 0.21 0.21 97 1009.6
20260905030812 73 120 0.0 0.0 0.00 0.21 0.21 97 1009.6
20260905030306 73 120 0.0 0.0 0.00 0.21 0.21 97 1009.6
20260905025800 73 120 0.0 0.0 0.00 0.21 0.21 97 1009.5
20260905025254 73 121 0.0 0.0 0.00 0.21 0.21 97 1009.6
20260905024747 73 120 0.0 0.0 0.00 0.21 0.21 97 1009.6
20260905024242 73 121 0.0 0.0 0.00 0.21 0.21 97 1009.6
20260905023736 73 121 0.0 0.0 0.00 0.21 0.21 97 1009.8
20260905023229 73 120 0.0 1.0 0.00 0.21 0.21 97 1009.6
20260905022724 73 121 0.0 1.0 0.00 0.21 0.21 97 1009.7
20260905022218 73 122 0.0 0.0 0.00 0.21 0.21 97 1009.8
20260905021712 73 139 0.0 1.0 0.00 0.21 0.21 97 1009.8
20260905021205 73 146 0.0 0.0 0.00 0.21 0.21 97 1009.6
20260905020700 74 149 0.0 0.0 0.00 0.21 0.21 97 1009.6
20260905020154 74 149 0.0 0.0 0.00 0.21 0.21 97 1009.6
20260905015647 74 149 0.0 0.0 0.00 0.21 0.21 97 1009.7
20260905015142 74 149 0.0 0.0 0.00 0.21 0.21 97 1009.5
20260905014856 74 149 0.0 0.0 0.00 0.21 0.21 97 1009.5
20260905014130 74 149 0.0 0.0 0.00 0.21 0.21 97 1009.5
20260905013624 73 149 0.0 0.0 0.00 0.21 0.21 97 1009.5
20260905013118 73 149 0.0 0.0 0.00 0.21 0.21 97 1009.4
20260905012612 74 149 0.0 0.0 0.00 0.21 0.21 97 1009.3
20260905012112 73 149 0.0 0.0 0.00 0.21 0.21 97 1009.1
20260905011613 74 149 0.0 0.0 0.00 0.21 0.21 97 1009.1
20260905011337 74 149 0.0 0.0 0.00 0.21 0.21 97 1008.9
20260905010841 74 149 0.0 0.0 0.00 0.21 0.21 97 1008.7
20260905010113 74 149 0.0 0.0 0.00 0.21 0.21 97 1008.6
20260905005839 74 149 0.0 0.0 0.00 0.21 0.21 97 1008.7
20260905005114 74 149 0.0 2.0 0.00 0.21 0.21 97 1008.6
20260905004612 74 34 0.0 2.0 0.00 0.21 0.21 97 1008.6
20260905004114 74 63 0.0 1.0 0.00 0.21 0.21 96 1008.4
20260905003612 74 66 0.0 0.0 0.00 0.21 0.21 96 1008.2
20260905003114 74 66 0.0 0.0 0.00 0.21 0.21 96 1008.7
20260905002613 74 66 0.0 0.0 0.01 0.21 0.21 96 1008.8
20260905002114 74 66 0.0 0.0 0.01 0.21 0.21 96 1008.6
20260905001613 74 66 0.0 0.0 0.01 0.21 0.21 96 1008.2
20260905001113 74 66 0.0 0.0 0.01 0.21 0.21 96 1008.2
20260905000615 74 66 0.0 0.0 0.01 0.21 0.21 96 1008.0
20260905000116 74 66 0.0 1.0 0.01 0.21 0.21 96 1008.1
20260904235616 74 66 0.0 1.0 0.01 0.21 0.21 96 1008.2
20260904235115 74 66 0.0 1.0 0.01 0.21 0.21 96 1008.2
20260904234612 74 73 0.0 1.0 0.01 0.21 0.21 95 1007.8
20260904234112 74 73 0.0 2.0 0.01 0.21 0.21 95 1008.2
20260904233610 74 37 0.0 2.0 0.01 0.21 0.21 95 1008.0
20260904233111 74 253 0.0 3.0 0.01 0.21 0.21 95 1008.4
20260904232608 74 219 0.0 3.0 0.00 0.20 0.21 95 1008.8
20260904232108 74 218 0.0 3.0 0.02 0.20 0.20 95 1009.2
20260904231609 74 220 0.0 1.0 0.02 0.20 0.20 96 1009.1
20260904231553 74 220 0.0 1.0 0.03 0.20 0.20 96 1009.2
20260904230609 74 220 0.0 1.0 0.04 0.20 0.20 95 1009.3
20260904230107 74 221 0.0 0.0 0.16 0.20 0.20 95 1009.3
20260904225605 74 221 0.0 0.0 0.20 0.20 0.20 95 1009.2
20260904225330 74 221 0.0 0.0 0.20 0.20 0.20 95 1009.2
20260904224603 74 221 0.0 2.0 0.20 0.20 0.20 95 1009.3
20260904224327 74 221 0.0 2.0 0.20 0.20 0.20 94 1009.8
20260904223601 74 205 0.0 1.0 0.20 0.20 0.20 95 1010.0
20260904223100 74 51 0.0 1.0 0.20 0.20 0.20 95 1009.8
20260904222559 74 31 0.0 1.0 0.20 0.20 0.20 94 1009.4
20260904222058 74 30 1.0 3.0 0.18 0.18 0.19 94 1009.5
20260904221554 74 30 1.0 3.0 0.18 0.18 0.18 93 1009.9
20260904221056 74 32 0.0 2.0 0.17 0.17 0.17 92 1010.0
20260904220556 74 85 0.0 1.0 0.13 0.13 0.16 92 1009.8
20260904220054 74 118 0.0 1.0 0.04 0.04 0.05 92 1010.1
20260904215555 75 226 0.0 1.0 0.00 0.00 0.00 91 1009.7
20260904215053 75 83 0.0 3.0 0.00 0.00 0.00 89 1009.2
20260904214551 75 73 1.0 4.0 0.00 0.00 0.00 87 1009.3
20260904214314 76 30 2.0 6.0 0.00 0.00 0.00 84 1009.3
20260904213551 79 32 2.0 10.0 0.00 0.00 0.00 79 1009.9
20260904213051 83 167 3.0 15.0 0.00 0.00 0.00 74 1009.9
20260904212550 87 20 4.0 15.0 0.00 0.00 0.00 71 1009.0
20260904212323 90 108 2.0 15.0 0.00 0.00 0.00 66 1008.9
20260904211554 93 9 0.0 9.0 0.00 0.00 0.00 62 1008.1
20260904211047 93 65 0.0 0.0 0.00 0.00 0.00 63 1007.7
20260904210542 94 65 0.0 0.0 0.00 0.00 0.00 61 1007.6
20260904210036 94 65 0.0 0.0 0.00 0.00 0.00 60 1007.5
20260904205530 95 65 0.0 0.0 0.00 0.00 0.00 60 1007.6
20260904205258 96 65 0.0 0.0 0.00 0.00 0.00 59 1007.5
20260904204518 97 65 0.0 0.0 0.00 0.00 0.00 58 1007.5
20260904204234 97 65 0.0 1.0 0.00 0.00 0.00 57 1007.5
20260904203506 98 65 0.0 1.0 0.00 0.00 0.00 56 1007.5
20260904203001 99 68 0.0 1.0 0.00 0.00 0.00 55 1007.4
20260904202454 98 158 0.0 0.0 0.00 0.00 0.00 56 1007.4
20260904202221 96 157 0.0 0.0 0.00 0.00 0.00 57 1007.3
20260904201441 96 158 0.0 0.0 0.00 0.00 0.00 58 1007.2
20260904200936 96 158 0.0 0.0 0.00 0.00 0.00 58 1007.3
20260904200430 95 158 0.0 0.0 0.00 0.00 0.00 59 1007.4
20260904195923 95 158 0.0 0.0 0.00 0.00 0.00 59 1007.7
20260904195416 96 160 0.0 0.0 0.00 0.00 0.00 57 1007.8
20260904194910 97 160 0.0 1.0 0.00 0.00 0.00 55 1008.0
20260904194403 98 160 0.0 1.0 0.00 0.00 0.00 52 1008.0
20260904194119 99 28 0.0 2.0 0.00 0.00 0.00 51 1008.1
20260904193352 100 27 1.0 2.0 0.00 0.00 0.00 50 1008.0
20260904192846 101 157 1.0 2.0 0.00 0.00 0.00 49 1008.1
20260904192340 101 34 1.0 2.0 0.00 0.00 0.00 50 1008.3
20260904191834 102 36 0.0 2.0 0.00 0.00 0.00 50 1008.2
20260904191550 103 22 0.0 2.0 0.00 0.00 0.00 50 1008.3
20260904190822 102 258 0.0 2.0 0.00 0.00 0.00 48 1008.4
20260904190316 101 203 0.0 4.0 0.00 0.00 0.00 51 1008.4
20260904190031 101 164 0.0 4.0 0.00 0.00 0.00 49 1008.5
20260904185306 101 152 0.0 2.0 0.00 0.00 0.00 50 1008.7
20260904184757 101 147 0.0 3.0 0.00 0.00 0.00 50 1008.8
20260904184252 100 156 1.0 4.0 0.00 0.00 0.00 51 1009.0
20260904183745 100 205 1.0 4.0 0.00 0.00 0.00 50 1009.0
20260904183239 99 172 1.0 6.0 0.00 0.00 0.00 51 1009.1
20260904182734 99 202 1.0 6.0 0.00 0.00 0.00 51 1009.2
20260904182227 99 81 0.0 2.0 0.00 0.00 0.00 51 1009.2
20260904181721 98 39 0.0 2.0 0.00 0.00 0.00 54 1009.3
20260904181215 98 39 1.0 4.0 0.00 0.00 0.00 54 1009.4
20260904180709 98 38 1.0 4.0 0.00 0.00 0.00 52 1009.5
20260904180201 99 32 1.0 3.0 0.00 0.00 0.00 52 1009.6
20260904175920 99 210 0.0 3.0 0.00 0.00 0.00 50 1009.6
20260904175149 99 222 0.0 2.0 0.00 0.00 0.00 52 1009.7
20260904174648 99 274 1.0 2.0 0.00 0.00 0.00 53 1009.7
20260904174147 99 51 0.0 0.0 0.00 0.00 0.00 53 1009.8
20260904173842 98 267 0.0 1.0 0.00 0.00 0.00 54 1009.8
20260904173339 98 51 0.0 2.0 0.00 0.00 0.00 54 1009.8
20260904172835 97 198 0.0 2.0 0.00 0.00 0.00 54 1010.0
20260904172336 96 148 1.0 3.0 0.00 0.00 0.00 56 1009.9
20260904172104 97 37 1.0 3.0 0.00 0.00 0.00 55 1009.9
20260904171335 97 22 0.0 2.0 0.00 0.00 0.00 55 1009.8
20260904171101 97 206 1.0 4.0 0.00 0.00 0.00 57 1009.8
20260904170603 96 183 1.0 4.0 0.00 0.00 0.00 57 1009.8
20260904165830 96 200 0.0 3.0 0.00 0.00 0.00 57 1009.9
20260904165326 96 136 0.0 3.0 0.00 0.00 0.00 58 1009.8
20260904164818 95 201 0.0 3.0 0.00 0.00 0.00 59 1009.9
20260904164313 94 180 0.0 2.0 0.00 0.00 0.00 59 1010.0
20260904163807 94 214 1.0 4.0 0.00 0.00 0.00 61 1010.0
20260904163301 94 32 0.0 4.0 0.00 0.00 0.00 63 1010.0
20260904163235 93 149 1.0 4.0 0.00 0.00 0.00 62 1010.2
20260904162740 93 211 1.0 4.0 0.00 0.00 0.00 64 1010.2
20260904161751 92 27 1.0 4.0 0.00 0.00 0.00 63 1010.2
20260904161251 92 40 1.0 4.0 0.00 0.00 0.00 63 1010.2
20260904160747 91 48 0.0 4.0 0.00 0.00 0.00 63 1010.3
20260904160248 92 145 1.0 3.0 0.00 0.00 0.00 63 1010.2
20260904155746 91 31 1.0 4.0 0.00 0.00 0.00 64 1010.4
20260904155247 91 45 1.0 4.0 0.00 0.00 0.00 63 1010.5
20260904154746 91 151 0.0 3.0 0.00 0.00 0.00 65 1010.6
20260904154246 91 46 1.0 4.0 0.00 0.00 0.00 66 1010.6
20260904153744 90 229 1.0 4.0 0.00 0.00 0.00 64 1010.5
20260904153243 90 36 1.0 4.0 0.00 0.00 0.00 66 1010.5
20260904152743 90 125 1.0 4.0 0.00 0.00 0.00 67 1010.4
20260904152248 90 27 1.0 4.0 0.00 0.00 0.00 67 1010.4
20260904151745 90 215 0.0 3.0 0.00 0.00 0.00 67 1010.4
20260904151241 90 39 1.0 4.0 0.00 0.00 0.00 69 1010.5
20260904150739 89 39 1.0 4.0 0.00 0.00 0.00 68 1010.4
20260904150241 89 163 0.0 2.0 0.00 0.00 0.00 70 1010.4
20260904145741 89 173 0.0 2.0 0.00 0.00 0.00 70 1010.4
20260904145239 89 70 0.0 2.0 0.00 0.00 0.00 70 1010.4
20260904144739 88 131 1.0 3.0 0.00 0.00 0.00 72 1010.4
20260904144503 88 39 1.0 4.0 0.00 0.00 0.00 72 1010.3
20260904143740 87 184 1.0 4.0 0.00 0.00 0.00 72 1010.3
20260904143241 87 215 0.0 3.0 0.00 0.00 0.00 73 1010.3
20260904142739 87 33 0.0 3.0 0.00 0.00 0.00 73 1010.3
20260904142241 87 140 0.0 3.0 0.00 0.00 0.00 73 1010.3
20260904141741 86 67 0.0 3.0 0.00 0.00 0.00 74 1010.3
20260904141240 86 23 0.0 3.0 0.00 0.00 0.00 76 1010.2
20260904140739 86 88 0.0 3.0 0.00 0.00 0.00 77 1010.2
20260904140503 85 32 0.0 4.0 0.00 0.00 0.00 77 1010.3
20260904135740 85 27 0.0 4.0 0.00 0.00 0.00 77 1010.3
20260904135239 85 197 0.0 3.0 0.00 0.00 0.00 77 1010.2
20260904134737 84 161 0.0 2.0 0.00 0.00 0.00 78 1010.1
20260904134242 84 212 0.0 3.0 0.00 0.00 0.00 78 1010.1
20260904133946 83 99 0.0 3.0 0.00 0.00 0.00 79 1010.1
20260904133220 83 223 0.0 2.0 0.00 0.00 0.00 80 1010.0
20260904132714 83 218 1.0 4.0 0.00 0.00 0.00 80 1009.8
20260904132208 83 210 0.0 4.0 0.00 0.00 0.00 80 1010.0
20260904131702 82 146 0.0 2.0 0.00 0.00 0.00 81 1010.0
20260904131156 82 70 0.0 1.0 0.00 0.00 0.00 82 1010.1
20260904130650 82 193 0.0 1.0 0.00 0.00 0.00 82 1010.0
20260904130623 82 64 0.0 1.0 0.00 0.00 0.00 82 1010.1
20260904125638 81 138 0.0 1.0 0.00 0.00 0.00 82 1010.1
20260904125131 81 217 0.0 2.0 0.00 0.00 0.00 83 1010.2
20260904124849 81 217 0.0 4.0 0.00 0.00 0.00 83 1010.2
20260904124349 81 206 0.0 5.0 0.00 0.00 0.00 83 1010.3
20260904123614 80 25 0.0 5.0 0.00 0.00 0.00 84 1010.2
20260904123108 80 200 0.0 2.0 0.00 0.00 0.00 84 1010.1
20260904122832 80 52 0.0 4.0 0.00 0.00 0.00 85 1010.1
20260904122055 80 60 0.0 4.0 0.00 0.00 0.00 85 1010.1
20260904121549 79 11 1.0 3.0 0.00 0.00 0.00 86 1010.2
20260904121044 78 89 1.0 5.0 0.00 0.00 0.00 88 1010.3
20260904121028 78 273 0.0 5.0 0.00 0.00 0.00 90 1010.2
20260904120032 76 208 0.0 3.0 0.00 0.00 0.00 92 1010.2
20260904115526 76 190 0.0 1.0 0.00 0.00 0.00 93 1010.1
20260904115020 75 155 0.0 1.0 0.00 0.00 0.00 94 1009.9
20260904114742 75 43 0.0 0.0 0.00 0.00 0.00 94 1009.9
20260904114225 74 43 0.0 0.0 0.00 0.00 0.00 93 1010.0
20260904113502 74 44 0.0 0.0 0.00 0.00 0.00 93 1010.1